Regional Weather Roundup
Issued by NWS Newport/Morehead, NC

Current Version | Previous Version | Graphics & Text | Print | Product List | Glossary Off
Versions: 1 2 3 4 5 6 7 8 9 10 11 12 13 14 15 16 17 18 19 20 21 22 23 24 25 26 27 28 29 30 31 32 33 34 35 36 37 38 39 40 41 42 43 44 45 46 47 48 49 50

000
ASUS42 KMHX 280925
RWRMHX
WEATHER ROUNDUP FOR EASTERN NORTH CAROLINA
NATIONAL WEATHER SERVICE NEWPORT/MOREHEAD CITY NC
500 AM EDT WED SEP 28 2016

NOTE: "FAIR" INDICATES FEW OR NO CLOUDS BELOW 12,000 FEET
WITH NO SIGNIFICANT WEATHER AND/OR OBSTRUCTIONS TO VISIBILITY

NCZ015>017-031-032-045>047-102-103-281000-
NORTH COAST

CITY           SKY/WX    TMP DP  RH WIND       PRES   REMARKS
EDENTON        CLEAR     67  67 100 CALM      29.93S
ELIZABETH CITY CLEAR     65  64  97 CALM      29.93S
KITTY HAWK     SUNNY     71  71 100 CALM      29.91S
MANTEO         NOT AVBL

$$

NCZ045>047-081-094-103-104-281000-
CENTRAL COAST

CITY           SKY/WX    TMP DP  RH WIND       PRES   REMARKS
FRISCO         PTCLDY    74  71  91 CALM      29.91R

$$

NCZ095-097-098-100-101-281000-
SOUTHERN COAST

CITY           SKY/WX    TMP DP  RH WIND       PRES   REMARKS
BEAUFORT       CLEAR     71  69  93 CALM      29.92S
CEDAR ISLAND   NOT AVBL
JACKSONVILLE   CLEAR     67  65  93 W3        29.92S
PINEY ISLAND   SUNNY    N/A N/A N/A CALM      29.91
WILMINGTON     CLEAR     68  67  96 CALM      29.92S


$$

NCZ011>013-027>030-043-044-078>080-089-090>093-098-281000-
COASTAL PLAIN

CITY           SKY/WX    TMP DP  RH WIND       PRES   REMARKS
AHOSKIE        MOCLDY    67  66  97 CALM      29.93S
CLINTON        PTCLDY    69  69 100 CALM      29.93R FOG
ELIZABETHTOWN  CLEAR     70  70 100 CALM      29.92R
GOLDSBORO      MOCLDY    70  70 100 SE6       29.90S
GREENVILLE     CLOUDY    70  70 100 E3        29.95S
HAVELOCK       CLOUDY    69  67  93 CALM      29.93S
KENANSVILLE    PTCLDY    68  68 100 CALM      29.93S FOG
KINSTON        MOCLDY    69  69  99 S3        29.94R
NEW BERN       CLOUDY    69  68  96 CALM      29.94S FOG
RICHLANDS      MOCLDY    67  67 100 CALM      29.94R
ROCKY MOUNT    PTCLDY    70  70 100 CALM      29.91F
WASHINGTON     CLOUDY    66  65  99 E3        29.92F
WHITEVILLE     CLEAR     68  67  96 CALM      29.92S

$$

AMZ130-135-150-152-154-156-158-170-250-252-270-ANZ085-086-088-633-658-670-281000-
MARINE OBSERVATIONS

STATION/POSITION TIME  TEMP    WIND        PRES    WAVE   SWELL
                       AIR SEA DIR/SP/G            HT/PER HT/PER
                 (UTC) (F)     (DEG/KT/KT) (MB)    (FT/S) (FT/S)
CHESAPEAKE LIGHT NOT AVBL
64 E VA BEACH    0850   74 74  360/  8/ 10 1012.3    5/ 7   5/ 7
DUCK             0900   74 76  300/  3/  4 1012.6
2 E DUCK         0841      76                N/A     4/ 7   2/11
OREGON INLET     0900   73 76  310/  5/  6 1012.8
13E OREGON INLT  0830      76                N/A     5/ 7   5/ 7
HATTERAS CG      0900   75 77  340/  5/  6 1012.6
DIAMOND BUOY     0850   77 84  350/ 10/ 12 1012.0    5/ 7   5/ 7
CAPE LOOKOUT     0900   73     360/  4/  5 1012.9
BEAUFORT LAB     0900   72 76   20/  3/  4 1012.4
30 SE NEW RVR IN 0908   79 83   20/  2/  4 1013.2
30 SE NEW RVR IN 0825      83                N/A     3/ 6   2/11
27 SE WRIGHTSVLE 0908   79 81   10/  2/  4 1013.2
5 SE WRIGHTSVLE  0808   78 80  240/  4/  8 1014.1
225 S CAPE HAT   0850   79 83  190/ 10/ 14 1013.4    5/12   3/12
41 SE CHARLESTON 0850   79 82  310/  2/  4 1012.8    3/11   3/11

$$



USA.gov is the U.S. government's official web portal to all federal, state and local government web resources and services.